LPE2198 SPJC-SPQT

Flight info

Callsign LPE2198
Flight time 1h 26m
Altitude 37000
Route AMVEX UM414 MAJAZ
Aircraft A320/M-SDE3FGHIRWY/LB1

Departure

Time 2026-05-06 17:50
Airport Jorge Chávez International Airport (SPJC)

Arrival

Time 2026-05-06 19:16
Airport Coronel FAP Francisco Secada Vignetta International Airport (SPQT)
Time Latitude Longitude Altitude Speed Heading
2026-05-06 17:28 -12.02733 -77.11485 81 ft 0 kts 244°
2026-05-06 17:29 -12.02733 -77.11484 81 ft 0 kts 244°
2026-05-06 17:34 -12.02727 -77.11471 85 ft 3 kts 248°
2026-05-06 17:34 -12.02720 -77.11452 86 ft 3 kts 263°
2026-05-06 17:35 -12.02720 -77.11433 83 ft 3 kts 297°
2026-05-06 17:35 -12.02728 -77.11422 85 ft 1 kts 334°
2026-05-06 17:35 -12.02729 -77.11422 85 ft 3 kts 334°
2026-05-06 17:38 -12.02726 -77.11423 82 ft 2 kts 334°
2026-05-06 17:38 -12.02688 -77.11442 83 ft 9 kts 335°
2026-05-06 17:38 -12.02627 -77.11470 83 ft 10 kts 335°
2026-05-06 17:38 -12.02561 -77.11503 84 ft 11 kts 332°
2026-05-06 17:39 -12.02489 -77.11540 82 ft 12 kts 334°
2026-05-06 17:39 -12.02413 -77.11577 84 ft 13 kts 335°
2026-05-06 17:39 -12.02340 -77.11613 81 ft 10 kts 334°
2026-05-06 17:39 -12.02277 -77.11643 69 ft 11 kts 334°
2026-05-06 17:40 -12.02199 -77.11682 74 ft 14 kts 334°
2026-05-06 17:40 -12.02140 -77.11711 70 ft 9 kts 334°
2026-05-06 17:40 -12.02081 -77.11741 64 ft 11 kts 334°
2026-05-06 17:40 -12.02032 -77.11765 67 ft 7 kts 334°
2026-05-06 17:41 -12.02011 -77.11775 69 ft 5 kts 335°
2026-05-06 17:41 -12.01990 -77.11785 61 ft 5 kts 335°
2026-05-06 17:41 -12.01945 -77.11807 66 ft 5 kts 334°
2026-05-06 17:41 -12.01890 -77.11834 57 ft 9 kts 333°
2026-05-06 17:42 -12.01844 -77.11840 63 ft 7 kts 28°
2026-05-06 17:42 -12.01804 -77.11804 66 ft 10 kts 14°
2026-05-06 17:42 -12.01744 -77.11826 64 ft 7 kts 332°
2026-05-06 17:42 -12.01701 -77.11849 58 ft 7 kts 333°
2026-05-06 17:43 -12.01659 -77.11871 64 ft 6 kts 333°
2026-05-06 17:43 -12.01623 -77.11890 63 ft 6 kts 333°
2026-05-06 17:43 -12.01591 -77.11906 58 ft 5 kts 333°
2026-05-06 17:43 -12.01565 -77.11919 60 ft 5 kts 333°
2026-05-06 17:44 -12.01534 -77.11935 57 ft 5 kts 334°
2026-05-06 17:44 -12.01502 -77.11951 61 ft 5 kts 334°
2026-05-06 17:44 -12.01460 -77.11971 55 ft 11 kts 334°
2026-05-06 17:44 -12.01388 -77.12007 56 ft 11 kts 334°
2026-05-06 17:45 -12.01318 -77.12042 53 ft 11 kts 330°
2026-05-06 17:45 -12.01263 -77.12093 57 ft 11 kts 307°
2026-05-06 17:45 -12.01215 -77.12153 53 ft 11 kts 319°
2026-05-06 17:45 -12.01152 -77.12190 55 ft 7 kts 334°
2026-05-06 17:46 -12.01106 -77.12213 54 ft 8 kts 334°
2026-05-06 17:46 -12.01058 -77.12236 53 ft 9 kts 334°
2026-05-06 17:46 -12.01012 -77.12258 52 ft 6 kts 334°
2026-05-06 17:46 -12.00978 -77.12275 52 ft 5 kts 335°
2026-05-06 17:47 -12.00942 -77.12292 49 ft 6 kts 335°
2026-05-06 17:47 -12.00906 -77.12309 51 ft 5 kts 336°
2026-05-06 17:47 -12.00874 -77.12314 51 ft 4 kts 10°
2026-05-06 17:47 -12.00859 -77.12305 51 ft 1 kts 35°
2026-05-06 17:48 -12.00847 -77.12287 51 ft 4 kts 64°
2026-05-06 17:48 -12.00834 -77.12259 50 ft 8 kts 64°
2026-05-06 17:48 -12.00810 -77.12208 52 ft 8 kts 64°
2026-05-06 17:48 -12.00787 -77.12161 51 ft 7 kts 64°
2026-05-06 17:49 -12.00779 -77.12125 52 ft 4 kts 108°
2026-05-06 17:49 -12.00794 -77.12119 50 ft 2 kts 166°
2026-05-06 17:49 -12.00819 -77.12107 50 ft 15 kts 155°
2026-05-06 17:49 -12.01141 -77.11949 58 ft 85 kts 154°
2026-05-06 17:50 -12.01844 -77.11602 57 ft 139 kts 154°
2026-05-06 17:50 -12.02831 -77.11109 247 ft 167 kts 155°
2026-05-06 17:50 -12.03870 -77.10592 898 ft 166 kts 157°
2026-05-06 17:50 -12.04969 -77.10064 1290 ft 185 kts 156°
2026-05-06 17:51 -12.06207 -77.09459 1668 ft 208 kts 155°
2026-05-06 17:51 -12.07585 -77.08779 1999 ft 233 kts 154°
2026-05-06 17:51 -12.09105 -77.08027 2523 ft 255 kts 154°
2026-05-06 17:51 -12.10731 -77.07223 3335 ft 263 kts 154°
2026-05-06 17:52 -12.12402 -77.06398 4130 ft 268 kts 154°
2026-05-06 17:52 -12.14096 -77.05561 4926 ft 272 kts 154°
2026-05-06 17:52 -12.15129 -77.05050 5389 ft 274 kts 154°
2026-05-06 17:52 -12.16713 -77.03974 6122 ft 279 kts 131°
2026-05-06 17:53 -12.17552 -77.02185 6837 ft 285 kts 98°
2026-05-06 17:53 -12.17306 -77.00188 7540 ft 289 kts 65°
2026-05-06 17:53 -12.16050 -76.98621 8241 ft 293 kts 33°
2026-05-06 17:53 -12.14169 -76.97821 8950 ft 296 kts 11°
2026-05-06 17:54 -12.12111 -76.97580 9677 ft 299 kts
2026-05-06 17:54 -12.10016 -76.97409 10272 ft 307 kts
2026-05-06 17:54 -12.07806 -76.97244 10426 ft 330 kts
2026-05-06 17:54 -12.05449 -76.97077 10666 ft 347 kts
2026-05-06 17:55 -12.03042 -76.96911 11183 ft 353 kts
2026-05-06 17:55 -12.00579 -76.96741 11793 ft 356 kts
2026-05-06 17:55 -11.98086 -76.96570 12409 ft 360 kts
2026-05-06 17:55 -11.95579 -76.96396 13000 ft 363 kts
2026-05-06 17:56 -11.93038 -76.96218 13586 ft 366 kts
2026-05-06 17:56 -11.90483 -76.96037 14121 ft 369 kts
2026-05-06 17:56 -11.87907 -76.95851 14636 ft 372 kts
2026-05-06 17:56 -11.85340 -76.95785 15153 ft 376 kts 357°
2026-05-06 17:57 -11.82746 -76.96213 15673 ft 380 kts 347°
2026-05-06 17:57 -11.80164 -76.96879 16193 ft 383 kts 347°
2026-05-06 17:57 -11.77570 -76.97547 16708 ft 386 kts 347°
2026-05-06 17:57 -11.74949 -76.98222 17213 ft 390 kts 347°
2026-05-06 17:58 -11.72308 -76.98897 17711 ft 393 kts 347°
2026-05-06 17:58 -11.69643 -76.99575 18214 ft 396 kts 347°
2026-05-06 17:58 -11.66954 -77.00259 18655 ft 399 kts 347°
2026-05-06 17:58 -11.64256 -77.00947 19088 ft 401 kts 347°
2026-05-06 17:59 -11.61541 -77.01643 19535 ft 403 kts 347°
2026-05-06 17:59 -11.58811 -77.02345 19976 ft 405 kts 346°
2026-05-06 17:59 -11.56069 -77.03049 20418 ft 407 kts 346°
2026-05-06 17:59 -11.53354 -77.03744 20847 ft 408 kts 346°
2026-05-06 18:00 -11.50591 -77.04452 21278 ft 410 kts 346°
2026-05-06 18:00 -11.47807 -77.05163 21734 ft 412 kts 346°
2026-05-06 18:00 -11.45012 -77.05879 22150 ft 414 kts 346°
2026-05-06 18:00 -11.42205 -77.06595 22567 ft 415 kts 346°
2026-05-06 18:01 -11.39387 -77.07315 22982 ft 417 kts 346°
2026-05-06 18:01 -11.36534 -77.07860 23377 ft 419 kts 355°
2026-05-06 18:01 -11.33646 -77.07850 23739 ft 421 kts
2026-05-06 18:01 -11.30769 -77.07264 24092 ft 422 kts 17°
2026-05-06 18:02 -11.28060 -77.06129 24467 ft 422 kts 27°
2026-05-06 18:02 -11.25458 -77.04721 24843 ft 423 kts 28°
2026-05-06 18:02 -11.22849 -77.03312 25208 ft 424 kts 27°
2026-05-06 18:02 -11.20237 -77.01907 25564 ft 425 kts 27°
2026-05-06 18:03 -11.17616 -77.00501 25899 ft 426 kts 27°
2026-05-06 18:03 -11.14976 -76.99086 26224 ft 428 kts 27°
2026-05-06 18:03 -11.12372 -76.97690 26549 ft 429 kts 27°
2026-05-06 18:03 -11.09719 -76.96264 26887 ft 431 kts 27°
2026-05-06 18:04 -11.07065 -76.94835 27227 ft 432 kts 27°
2026-05-06 18:04 -11.04395 -76.93403 27570 ft 433 kts 27°
2026-05-06 18:04 -11.01744 -76.91981 27890 ft 434 kts 27°
2026-05-06 18:04 -10.99068 -76.90544 28216 ft 435 kts 27°
2026-05-06 18:05 -10.96371 -76.89093 28570 ft 437 kts 27°
2026-05-06 18:05 -10.93678 -76.87644 28909 ft 438 kts 27°
2026-05-06 18:05 -10.90981 -76.86193 29218 ft 440 kts 27°
2026-05-06 18:05 -10.88272 -76.84739 29508 ft 441 kts 27°
2026-05-06 18:06 -10.85575 -76.83293 29802 ft 443 kts 27°
2026-05-06 18:06 -10.82840 -76.81829 30082 ft 443 kts 27°
2026-05-06 18:06 -10.80106 -76.80366 30333 ft 444 kts 27°
2026-05-06 18:06 -10.77355 -76.78894 30557 ft 446 kts 27°
2026-05-06 18:07 -10.74638 -76.77443 30744 ft 447 kts 27°
2026-05-06 18:07 -10.71879 -76.75973 30943 ft 449 kts 27°
2026-05-06 18:07 -10.69092 -76.74489 31152 ft 451 kts 27°
2026-05-06 18:07 -10.66312 -76.73008 31443 ft 450 kts 27°
2026-05-06 18:08 -10.63534 -76.71524 31737 ft 450 kts 26°
2026-05-06 18:08 -10.60759 -76.70044 32029 ft 449 kts 26°
2026-05-06 18:08 -10.58025 -76.68588 32287 ft 450 kts 26°
2026-05-06 18:08 -10.55251 -76.67111 32572 ft 449 kts 26°
2026-05-06 18:09 -10.52477 -76.65631 32850 ft 449 kts 26°
2026-05-06 18:09 -10.49700 -76.64150 33116 ft 449 kts 26°
2026-05-06 18:09 -10.46917 -76.62669 33366 ft 450 kts 26°
2026-05-06 18:09 -10.44169 -76.61206 33603 ft 450 kts 26°
2026-05-06 18:10 -10.41392 -76.59725 33868 ft 450 kts 26°
2026-05-06 18:10 -10.38614 -76.58244 34156 ft 450 kts 26°
2026-05-06 18:10 -10.35839 -76.56768 34400 ft 450 kts 26°
2026-05-06 18:10 -10.33063 -76.55292 34642 ft 450 kts 26°
2026-05-06 18:11 -10.30289 -76.53815 34877 ft 450 kts 26°
2026-05-06 18:11 -10.28455 -76.52837 35026 ft 450 kts 26°
2026-05-06 18:11 -10.24780 -76.50879 35319 ft 449 kts 26°
2026-05-06 18:11 -10.22006 -76.49405 35524 ft 449 kts 26°
2026-05-06 18:12 -10.19236 -76.47935 35745 ft 449 kts 26°
2026-05-06 18:12 -10.16467 -76.46465 35948 ft 448 kts 26°
2026-05-06 18:12 -10.13700 -76.44996 36150 ft 448 kts 26°
2026-05-06 18:12 -10.10931 -76.43527 36352 ft 448 kts 26°
2026-05-06 18:13 -10.08164 -76.42057 36550 ft 448 kts 26°
2026-05-06 18:13 -10.05403 -76.40586 36758 ft 448 kts 26°
2026-05-06 18:13 -10.02675 -76.39138 36961 ft 448 kts 26°
2026-05-06 18:13 -9.99905 -76.37670 37163 ft 448 kts 25°
2026-05-06 18:14 -9.94380 -76.34742 37255 ft 447 kts 26°
2026-05-06 18:14 -9.89804 -76.32317 37249 ft 447 kts 26°
2026-05-06 18:15 -9.84289 -76.29389 37249 ft 447 kts 26°
2026-05-06 18:15 -9.78772 -76.26465 37247 ft 447 kts 25°
2026-05-06 18:16 -9.73286 -76.23565 37250 ft 447 kts 25°
2026-05-06 18:16 -9.67772 -76.20644 37254 ft 447 kts 26°
2026-05-06 18:17 -9.62255 -76.17719 37245 ft 447 kts 26°
2026-05-06 18:17 -9.56734 -76.14799 37232 ft 447 kts 26°
2026-05-06 18:18 -9.51218 -76.11876 37163 ft 447 kts 26°
2026-05-06 18:18 -9.45723 -76.08968 37126 ft 447 kts 26°
2026-05-06 18:19 -9.40196 -76.06057 37111 ft 447 kts 26°
2026-05-06 18:19 -9.34674 -76.03139 37101 ft 447 kts 26°
2026-05-06 18:20 -9.29189 -76.00236 37101 ft 447 kts 26°
2026-05-06 18:20 -9.23622 -75.97420 37102 ft 446 kts 24°
2026-05-06 18:21 -9.18022 -75.94694 37103 ft 446 kts 24°
2026-05-06 18:21 -9.12417 -75.91958 37095 ft 446 kts 24°
2026-05-06 18:22 -9.06823 -75.89190 37094 ft 446 kts 24°
2026-05-06 18:22 -9.01269 -75.86437 37082 ft 446 kts 24°
2026-05-06 18:23 -8.95679 -75.83675 37082 ft 446 kts 24°
2026-05-06 18:23 -8.90102 -75.80917 37078 ft 446 kts 24°
2026-05-06 18:24 -8.84557 -75.78182 37070 ft 446 kts 24°
2026-05-06 18:24 -8.78967 -75.75427 37070 ft 446 kts 24°
2026-05-06 18:25 -8.73382 -75.72672 37068 ft 446 kts 24°
2026-05-06 18:25 -8.67837 -75.69929 37060 ft 446 kts 24°
2026-05-06 18:26 -8.62254 -75.67170 37057 ft 446 kts 24°
2026-05-06 18:26 -8.56657 -75.64419 37054 ft 446 kts 24°
2026-05-06 18:27 -8.51099 -75.61688 37054 ft 446 kts 25°
2026-05-06 18:27 -8.45500 -75.58925 37049 ft 447 kts 25°
2026-05-06 18:28 -8.39920 -75.56179 37051 ft 447 kts 25°
2026-05-06 18:28 -8.34319 -75.53423 37048 ft 447 kts 25°
2026-05-06 18:29 -8.28726 -75.50666 37046 ft 446 kts 25°
2026-05-06 18:29 -8.23170 -75.47927 37046 ft 446 kts 25°
2026-05-06 18:30 -8.17590 -75.45184 37043 ft 445 kts 25°
2026-05-06 18:30 -8.12015 -75.42443 37043 ft 445 kts 25°
2026-05-06 18:31 -8.06473 -75.39719 37040 ft 445 kts 25°
2026-05-06 18:31 -8.00892 -75.36978 37038 ft 445 kts 25°
2026-05-06 18:32 -7.95315 -75.34240 37038 ft 445 kts 25°
2026-05-06 18:32 -7.89741 -75.31495 37041 ft 445 kts 25°
2026-05-06 18:33 -7.84205 -75.28777 37036 ft 445 kts 25°
2026-05-06 18:33 -7.78652 -75.26053 37040 ft 445 kts 25°
2026-05-06 18:34 -7.73073 -75.23320 37038 ft 445 kts 25°
2026-05-06 18:34 -7.67503 -75.20585 37043 ft 444 kts 25°
2026-05-06 18:35 -7.61970 -75.17873 37039 ft 444 kts 25°
2026-05-06 18:35 -7.56392 -75.15135 37035 ft 444 kts 25°
2026-05-06 18:36 -7.50843 -75.12415 37036 ft 444 kts 25°
2026-05-06 18:36 -7.45312 -75.09707 37031 ft 444 kts 25°
2026-05-06 18:37 -7.39750 -75.06994 37033 ft 444 kts 25°
2026-05-06 18:37 -7.34194 -75.04270 37038 ft 444 kts 25°
2026-05-06 18:38 -7.28637 -75.01546 37040 ft 444 kts 25°
2026-05-06 18:38 -7.23087 -74.98829 37033 ft 444 kts 25°
2026-05-06 18:39 -7.17532 -74.96110 37029 ft 444 kts 25°
2026-05-06 18:40 -7.09230 -74.92046 37033 ft 444 kts 25°
2026-05-06 18:40 -7.03679 -74.89333 37032 ft 444 kts 25°
2026-05-06 18:41 -6.98123 -74.86618 37030 ft 444 kts 25°
2026-05-06 18:41 -6.92569 -74.83896 37028 ft 444 kts 25°
2026-05-06 18:42 -6.87035 -74.81192 37031 ft 444 kts 25°
2026-05-06 18:42 -6.81468 -74.78481 37026 ft 444 kts 25°
2026-05-06 18:43 -6.75897 -74.75762 37024 ft 444 kts 25°
2026-05-06 18:43 -6.70329 -74.73040 37019 ft 444 kts 26°
2026-05-06 18:44 -6.64767 -74.70316 37017 ft 445 kts 26°
2026-05-06 18:44 -6.59234 -74.67613 37013 ft 445 kts 26°
2026-05-06 18:45 -6.53658 -74.64897 37010 ft 445 kts 26°
2026-05-06 18:45 -6.48081 -74.62183 37011 ft 445 kts 26°
2026-05-06 18:46 -6.42490 -74.59458 37017 ft 445 kts 26°
2026-05-06 18:46 -6.36942 -74.56745 37012 ft 446 kts 26°
2026-05-06 18:47 -6.31351 -74.54019 37008 ft 446 kts 26°
2026-05-06 18:47 -6.25780 -74.51313 37014 ft 446 kts 26°
2026-05-06 18:48 -6.20186 -74.48594 37009 ft 446 kts 26°
2026-05-06 18:48 -6.14600 -74.45869 37005 ft 446 kts 26°
2026-05-06 18:49 -6.09044 -74.43160 37001 ft 446 kts 26°
2026-05-06 18:49 -6.03443 -74.40430 36999 ft 446 kts 26°
2026-05-06 18:50 -5.97837 -74.37698 37003 ft 447 kts 26°
2026-05-06 18:50 -5.92272 -74.34989 37005 ft 447 kts 26°
2026-05-06 18:51 -5.86659 -74.32260 37002 ft 448 kts 26°
2026-05-06 18:51 -5.81073 -74.29550 36995 ft 448 kts 26°
2026-05-06 18:52 -5.75456 -74.26821 37000 ft 448 kts 27°
2026-05-06 18:52 -5.69814 -74.24073 37000 ft 449 kts 27°
2026-05-06 18:53 -5.64192 -74.21332 36998 ft 449 kts 27°
2026-05-06 18:53 -5.58570 -74.18610 37005 ft 450 kts 26°
2026-05-06 18:53 -5.55742 -74.17242 36773 ft 450 kts 26°
2026-05-06 18:54 -5.52921 -74.15876 36421 ft 448 kts 26°
2026-05-06 18:54 -5.50113 -74.14514 35722 ft 449 kts 26°
2026-05-06 18:54 -5.47286 -74.13140 34942 ft 452 kts 27°
2026-05-06 18:54 -5.44438 -74.11755 34108 ft 457 kts 27°
2026-05-06 18:55 -5.41610 -74.10380 33527 ft 454 kts 27°
2026-05-06 18:55 -5.38776 -74.09002 32954 ft 450 kts 27°
2026-05-06 18:55 -5.35968 -74.07635 32385 ft 447 kts 27°
2026-05-06 18:55 -5.33181 -74.06281 31821 ft 443 kts 27°
2026-05-06 18:56 -5.30415 -74.04938 31265 ft 440 kts 27°
2026-05-06 18:56 -5.27674 -74.03609 30714 ft 437 kts 27°
2026-05-06 18:56 -5.24935 -74.02282 30174 ft 434 kts 27°
2026-05-06 18:56 -5.22221 -74.00966 29568 ft 431 kts 27°
2026-05-06 18:57 -5.19532 -73.99660 29045 ft 427 kts 27°
2026-05-06 18:57 -5.16870 -73.98365 28516 ft 423 kts 27°
2026-05-06 18:57 -5.14231 -73.97084 28011 ft 418 kts 27°
2026-05-06 18:57 -5.11624 -73.95819 27500 ft 414 kts 27°
2026-05-06 18:58 -5.09064 -73.94580 27015 ft 410 kts 27°
2026-05-06 18:58 -5.06499 -73.93339 26536 ft 406 kts 27°
2026-05-06 18:58 -5.03969 -73.92113 26063 ft 402 kts 27°
2026-05-06 18:58 -5.01467 -73.90901 25602 ft 398 kts 27°
2026-05-06 18:59 -4.98981 -73.89695 25143 ft 395 kts 27°
2026-05-06 18:59 -4.97344 -73.88901 24841 ft 393 kts 28°
2026-05-06 18:59 -4.94890 -73.87712 24388 ft 390 kts 28°
2026-05-06 18:59 -4.92441 -73.86526 23922 ft 388 kts 28°
2026-05-06 19:00 -4.90042 -73.85365 23446 ft 386 kts 28°
2026-05-06 19:00 -4.87616 -73.84190 22932 ft 383 kts 28°
2026-05-06 19:00 -4.85219 -73.83033 22467 ft 380 kts 28°
2026-05-06 19:00 -4.82850 -73.81889 22006 ft 377 kts 28°
2026-05-06 19:01 -4.80487 -73.80745 21529 ft 375 kts 28°
2026-05-06 19:01 -4.78135 -73.79605 21074 ft 373 kts 28°
2026-05-06 19:01 -4.75801 -73.78470 20601 ft 372 kts 28°
2026-05-06 19:01 -4.73470 -73.77337 20133 ft 371 kts 28°
2026-05-06 19:02 -4.71177 -73.76225 19674 ft 370 kts 28°
2026-05-06 19:02 -4.68857 -73.75099 19208 ft 369 kts 28°
2026-05-06 19:02 -4.66540 -73.73975 18741 ft 369 kts 28°
2026-05-06 19:02 -4.64227 -73.72854 18276 ft 368 kts 28°
2026-05-06 19:03 -4.61922 -73.71736 17778 ft 367 kts 28°
2026-05-06 19:03 -4.59631 -73.70623 17310 ft 364 kts 28°
2026-05-06 19:03 -4.57353 -73.69519 16798 ft 364 kts 28°
2026-05-06 19:03 -4.55061 -73.68415 16190 ft 367 kts 26°
2026-05-06 19:04 -4.52677 -73.67563 15720 ft 367 kts 19°
2026-05-06 19:04 -4.50238 -73.66782 15238 ft 366 kts 19°
2026-05-06 19:04 -4.47796 -73.65997 14666 ft 368 kts 19°
2026-05-06 19:04 -4.45370 -73.65216 14240 ft 366 kts 19°
2026-05-06 19:05 -4.42971 -73.64443 13818 ft 364 kts 19°
2026-05-06 19:05 -4.40568 -73.63666 13320 ft 361 kts 19°
2026-05-06 19:05 -4.38179 -73.62895 12808 ft 359 kts 19°
2026-05-06 19:05 -4.35796 -73.62129 12300 ft 357 kts 19°
2026-05-06 19:06 -4.33445 -73.61373 11822 ft 354 kts 19°
2026-05-06 19:06 -4.31094 -73.60618 11329 ft 352 kts 19°
2026-05-06 19:06 -4.28793 -73.59879 10948 ft 348 kts 19°
2026-05-06 19:06 -4.26526 -73.59150 10797 ft 335 kts 19°
2026-05-06 19:07 -4.25780 -73.58910 10756 ft 332 kts 19°
2026-05-06 19:07 -4.22223 -73.57772 10521 ft 314 kts 19°
2026-05-06 19:07 -4.20165 -73.57112 10341 ft 306 kts 19°
2026-05-06 19:07 -4.18157 -73.56466 10151 ft 299 kts 19°
2026-05-06 19:08 -4.16197 -73.55836 9745 ft 294 kts 19°
2026-05-06 19:08 -4.14259 -73.55215 9203 ft 290 kts 19°
2026-05-06 19:08 -4.12341 -73.54600 8590 ft 288 kts 19°
2026-05-06 19:08 -4.10468 -73.53999 7997 ft 285 kts 18°
2026-05-06 19:09 -4.08581 -73.53392 7396 ft 282 kts 18°
2026-05-06 19:09 -4.06731 -73.52796 7053 ft 270 kts 18°
2026-05-06 19:09 -4.04957 -73.52224 6469 ft 269 kts 18°
2026-05-06 19:09 -4.03174 -73.51647 5762 ft 271 kts 18°
2026-05-06 19:10 -4.01373 -73.51065 5067 ft 272 kts 18°
2026-05-06 19:10 -3.99572 -73.50483 4545 ft 266 kts 18°
2026-05-06 19:10 -3.97877 -73.49940 4235 ft 253 kts 18°
2026-05-06 19:10 -3.96238 -73.49415 4083 ft 243 kts 18°
2026-05-06 19:11 -3.94652 -73.48908 3937 ft 234 kts 18°
2026-05-06 19:11 -3.93133 -73.48420 3875 ft 223 kts 18°
2026-05-06 19:11 -3.91690 -73.47954 3799 ft 213 kts 18°
2026-05-06 19:11 -3.90316 -73.47509 3750 ft 199 kts 20°
2026-05-06 19:12 -3.89160 -73.46842 3671 ft 186 kts 41°
2026-05-06 19:12 -3.88366 -73.45881 3588 ft 174 kts 57°
2026-05-06 19:12 -3.87756 -73.44942 3434 ft 170 kts 56°
2026-05-06 19:12 -3.87098 -73.43942 3192 ft 172 kts 56°
2026-05-06 19:13 -3.86424 -73.42928 2872 ft 177 kts 56°
2026-05-06 19:13 -3.85737 -73.41890 2619 ft 178 kts 56°
2026-05-06 19:13 -3.85052 -73.40852 2375 ft 178 kts 56°
2026-05-06 19:13 -3.84383 -73.39839 2145 ft 173 kts 56°
2026-05-06 19:14 -3.83740 -73.38864 1933 ft 163 kts 56°
2026-05-06 19:14 -3.83135 -73.37947 1739 ft 153 kts 56°
2026-05-06 19:14 -3.82556 -73.37070 1534 ft 149 kts 56°
2026-05-06 19:14 -3.81989 -73.36211 1344 ft 147 kts 56°
2026-05-06 19:15 -3.81427 -73.35359 1155 ft 146 kts 56°
2026-05-06 19:15 -3.80868 -73.34512 974 ft 145 kts 56°
2026-05-06 19:15 -3.80315 -73.33672 789 ft 144 kts 56°
2026-05-06 19:15 -3.79774 -73.32848 619 ft 143 kts 56°
2026-05-06 19:16 -3.79229 -73.32020 406 ft 142 kts 56°
2026-05-06 19:16 -3.78698 -73.31218 312 ft 127 kts 56°
2026-05-06 19:16 -3.78307 -73.30625 312 ft 77 kts 56°
2026-05-06 19:16 -3.78095 -73.30304 312 ft 44 kts 57°
2026-05-06 19:17 -3.77968 -73.30110 312 ft 24 kts 57°
2026-05-06 19:17 -3.77922 -73.29990 310 ft 14 kts 97°
2026-05-06 19:17 -3.77876 -73.29957 310 ft 12 kts 297°
2026-05-06 19:17 -3.77910 -73.30025 310 ft 14 kts 236°
2026-05-06 19:18 -3.77986 -73.30138 312 ft 24 kts 237°
2026-05-06 19:18 -3.78078 -73.30281 312 ft 25 kts 237°
2026-05-06 19:18 -3.78164 -73.30407 313 ft 16 kts 237°
2026-05-06 19:18 -3.78198 -73.30458 313 ft 6 kts 226°
2026-05-06 19:19 -3.78231 -73.30456 313 ft 5 kts 164°
2026-05-06 19:19 -3.78285 -73.30423 309 ft 7 kts 146°